Regional Weather Roundup
Issued by NWS Bismarck, ND

Home | Current Version | Previous Version | Text Only | Print | Product List | Glossary On
Versions: 1 2 3 4 5 6 7 8 9 10 11 12 13 14 15 16 17 18 19 20 21 22 23 24 25 26 27 28 29 30 31 32 33 34 35 36 37 38 39 40 41 42 43 44 45 46 47 48 49 50
000
ASUS43 KBIS 230402
RWRBIS

NWR BROADCAST TEXT
NATIONAL WEATHER SERVICE BISMARCK ND
1100 PM CDT TUE MAY 22 2018

NOTE: "FAIR" INDICATES FEW OR NO CLOUDS BELOW 12,000 FEET WITH NO
SIGNIFICANT WEATHER AND/OR OBSTRUCTIONS TO VISIBILITY.


CITY           SKY/WX    TMP DP  RH WIND       PRES   REMARKS
WILLISTON      CLOUDY    68  50  52 N8        29.94R
MINOT          CLOUDY    69  51  52 N3        29.94R
MINOT AFB      CLOUDY    67  55  64 NW9       29.93R
BISMARCK       TSTM      63  61  93 N13       29.98R
DICKINSON      CLOUDY    63  54  72 SE10      29.94R
GARRISON         N/A     65  54  67 S6        29.95R
HETTINGER ARPT CLOUDY    64  54  69 E22G29    29.97R
JAMESTOWN      CLOUDY    69  55  60 SE8       29.96R
CARRINGTON     FAIR      70  57  64 S8        29.99S
HAZEN          FAIR      66  55  68 S12       29.95S
LINTON         MOCLDY   N/A N/A N/A E8        29.96F THUNDER
MANDAN           N/A     63  63 100 NE12      29.98F THUNDER
OAKES            N/A     66  57  72 SE10      29.98R
STANLEY          N/A     66  52  59 NE9       29.98S
TIOGA          CLOUDY    64  52  63 E10       29.97S
WATFORD CITY   MOCLDY    66  52  59 E8        29.94R
$$

CITY           SKY/WX    TMP DP  RH WIND       PRES   REMARKS
GRAND FORKS    FAIR      68  56  65 SE8       29.97R
GRAND FORKS AF FAIR      68  54  60 SE9       29.98R
DEVILS LAKE    FAIR      68  54  60 E8        29.98R
FARGO          FAIR      71  55  56 SE10      29.98R
CANDO          FAIR      66  50  55 E8        29.99R
CAVALIER         N/A     70  54  56 SE7       29.97R
GRAFTON        FAIR      68  55  64 SE8       30.00R
GWINNER          N/A     66  52  59 SE8       29.98R
LANGDON        FAIR      64  54  68 SE12      30.00R
ROLLA          FAIR      66  48  52 S5        29.99R
WALHALLA       FAIR      66  55  68 SE6       29.97R
$$

CITY           SKY/WX    TMP DP  RH WIND       PRES   REMARKS
ABERDEEN       MOCLDY    70  50  49 E8        29.96R
MOBRIDGE       CLOUDY    69  59  70 E7        29.92R
BUFFALO          N/A     67  59  75 E9        29.89S
RAPID CITY     CLOUDY    59  56  89 NW8       29.99F
GLASGOW        PTCLDY    65  49  56 CALM      29.91S
SIDNEY         MOCLDY    69  51  52 NE9       29.94R
WOLF POINT     CLEAR     63  52  67 CALM      29.92R
GLENDIVE       CLOUDY    64  56  75 N7        29.94R
MILES CITY     PTCLDY    65  58  78 NE8       29.91S
BAKER          CLOUDY    63  57  81 NE7       29.96R
$$

CITY           SKY/WX    TMP DP  RH WIND       PRES   REMARKS
BILLINGS       CLOUDY    60  55  83 N15       29.95R
GREAT FALLS    MOCLDY    59  51  75 N3        29.99R
$$




USA.gov is the U.S. government's official web portal to all federal, state and local government web resources and services.